Location: Kapuskasing
(49.3803°N, 82.4001°W)
Time: 10:23:03
(UTC-04:00)

RS-44 - Pass Details

Date: 15 March 2026
Orbit: 1175 x 1510 km, 82.5° (Epoch: 11 April)

Event Time Altitude Azimuth Distance (km) Brightness Sun altitude
Rises 04:46:30 0° 347° (NNW) 4,384 ? -28.1°
Reaches altitude 10° 04:49:18 10° 343° (NNW) 3,452 ? -27.7°
Maximum altitude 04:57:15 53° 270° (W) 1,719 ? -26.6°
Enters shadow 04:58:45 48° 238° (WSW) 1,823 ? -26.4°
